EW5171 Weather Reports


time (UTC)temp
F
wind
direction
speed
knots
gust
knots
rain 1hr
in
rain 24hr
in
rain mn
in
humidity
%
barometer
mb
20260510220044 38 254 0.9 3.5 0.00 0.00 0.00 78 1009.0
20260510215542 38 315 0.0 2.6 0.00 0.00 0.00 78 1009.0
20260510215044 38 274 0.0 2.6 0.00 0.00 0.00 78 1009.1
20260510214544 38 188 0.0 3.5 0.00 0.00 0.00 78 1009.1
20260510214041 38 265 0.0 3.5 0.00 0.00 0.00 78 1009.1
20260510213540 38 281 0.0 0.0 0.00 0.00 0.00 77 1009.2
20260510213039 38 281 0.0 0.9 0.00 0.00 0.00 77 1009.3
20260510212539 39 281 0.0 1.7 0.00 0.00 0.00 77 1009.4
20260510212039 39 281 0.0 1.7 0.00 0.00 0.00 76 1009.4
20260510211539 39 263 0.0 0.9 0.00 0.00 0.00 76 1009.5
20260510211039 39 263 0.0 0.9 0.00 0.00 0.00 75 1009.5
20260510210538 39 263 0.0 0.9 0.00 0.00 0.00 75 1009.6
20260510210037 40 263 0.0 0.9 0.00 0.00 0.00 74 1009.6
20260510205536 40 263 0.0 0.9 0.00 0.00 0.00 73 1009.7
20260510205039 40 263 0.0 1.7 0.00 0.00 0.00 73 1009.7
20260510204539 41 263 0.0 1.7 0.00 0.00 0.00 73 1009.7
20260510204037 41 263 0.0 0.9 0.00 0.00 0.00 72 1009.9
20260510203534 41 263 0.0 1.7 0.00 0.00 0.00 71 1009.8
20260510203034 42 264 0.0 1.7 0.00 0.00 0.00 71 1009.9
20260510202535 42 298 0.0 1.7 0.00 0.00 0.00 70 1009.9
20260510202034 42 283 0.0 0.9 0.00 0.00 0.00 69 1009.9
20260510201537 43 283 0.0 1.7 0.00 0.00 0.00 68 1010.0
20260510201033 43 283 0.0 1.7 0.00 0.00 0.00 68 1010.0
20260510200534 44 283 0.0 0.9 0.00 0.00 0.00 67 1010.0
20260510200104 44 265 0.0 1.7 0.00 0.00 0.00 66 1010.0
20260510195533 44 265 0.0 3.5 0.00 0.00 0.00 66 1010.1
20260510195032 45 267 0.0 4.3 0.00 0.00 0.00 65 1010.1
20260510194542 45 270 0.0 2.6 0.00 0.00 0.00 65 1010.1
20260510194032 45 271 0.0 2.6 0.00 0.00 0.00 64 1010.1
20260510193532 45 189 0.9 3.5 0.00 0.00 0.00 64 1010.0
20260510193041 46 299 0.9 3.5 0.00 0.00 0.00 63 1010.0
20260510192531 46 238 0.0 3.5 0.00 0.00 0.00 63 1010.0
20260510192031 46 287 0.0 5.2 0.00 0.00 0.00 62 1010.0
20260510191531 46 286 0.9 5.2 0.00 0.00 0.00 61 1010.0
20260510191031 47 325 0.0 4.3 0.00 0.00 0.00 61 1010.0
20260510190530 47 299 0.9 4.3 0.00 0.00 0.00 60 1010.0
20260510190031 47 290 1.7 5.2 0.00 0.00 0.00 60 1010.0
20260510185530 48 274 0.9 4.3 0.00 0.00 0.00 59 1010.0
20260510185033 48 273 0.9 3.5 0.00 0.00 0.00 59 1010.0
20260510184530 48 248 0.0 4.3 0.00 0.00 0.00 59 1010.0
20260510184031 48 294 0.9 4.3 0.00 0.00 0.00 58 1010.0
20260510183530 49 188 1.7 6.1 0.00 0.00 0.00 58 1010.0
20260510183041 49 246 0.0 5.2 0.00 0.00 0.00 57 1010.0
20260510182531 49 273 0.9 7.8 0.00 0.00 0.00 56 1010.1
20260510182032 50 221 0.9 7.8 0.00 0.00 0.00 56 1010.1
20260510181530 50 238 0.9 5.2 0.00 0.00 0.00 55 1010.1
20260510181033 50 263 1.7 6.1 0.00 0.00 0.00 55 1010.1
20260510180528 50 284 1.7 6.1 0.00 0.00 0.00 54 1010.1
20260510180030 51 284 1.7 6.1 0.00 0.00 0.00 54 1010.1
20260510175527 51 265 1.7 6.1 0.00 0.00 0.00 53 1010.1
20260510175027 51 274 1.7 8.7 0.00 0.00 0.00 52 1010.1
20260510174527 52 279 2.6 8.7 0.00 0.00 0.00 52 1010.2
20260510174027 52 70 0.9 4.3 0.00 0.00 0.00 53 1010.2
20260510173526 53 242 1.7 8.7 0.00 0.00 0.00 51 1010.1
20260510173029 53 292 2.6 8.7 0.00 0.00 0.00 49 1010.2
20260510172526 54 84 0.9 6.1 0.00 0.00 0.00 50 1010.2
20260510172025 54 240 1.7 7.8 0.00 0.00 0.00 49 1010.3
20260510171524 55 249 1.7 4.3 0.00 0.00 0.00 48 1010.3
20260510171023 55 310 0.0 7.0 0.00 0.00 0.00 50 1010.4
20260510170523 55 263 1.7 5.2 0.00 0.00 0.00 49 1010.5
20260510170022 55 221 1.7 9.6 0.00 0.00 0.00 50 1010.5
20260510165522 55 233 2.6 9.6 0.00 0.00 0.00 49 1010.6
20260510165022 55 300 0.9 7.8 0.00 0.00 0.00 50 1010.5
20260510164524 55 69 1.7 10.4 0.00 0.00 0.00 49 1010.5
20260510164019 56 319 3.5 10.4 0.00 0.00 0.00 48 1010.7
20260510163519 56 301 1.7 8.7 0.00 0.00 0.00 49 1010.8
20260510163021 55 285 1.7 8.7 0.00 0.00 0.00 52 1010.8
20260510162522 55 200 0.9 7.8 0.00 0.00 0.00 52 1010.8
20260510162019 55 279 0.9 7.0 0.00 0.00 0.00 52 1010.8
20260510161516 56 258 1.7 7.8 0.00 0.00 0.00 51 1010.9
20260510161016 56 266 3.5 11.3 0.00 0.00 0.00 49 1011.0
20260510160516 57 300 1.7 7.8 0.00 0.00 0.00 50 1011.1
20260510160021 57 267 2.6 7.8 0.00 0.00 0.00 49 1011.1
20260510155517 57 336 1.7 3.5 0.00 0.00 0.00 50 1011.1
20260510155014 56 333 0.9 4.3 0.00 0.00 0.00 51 1011.2
20260510154514 56 223 1.7 7.8 0.00 0.00 0.00 51 1011.2
20260510154015 55 236 2.6 10.4 0.00 0.00 0.00 52 1011.3
20260510153511 55 340 1.7 6.1 0.00 0.00 0.00 53 1011.4
20260510153014 54 182 0.9 3.5 0.00 0.00 0.00 54 1011.4
20260510152510 54 280 0.0 3.5 0.00 0.00 0.00 54 1011.5
20260510152010 54 185 1.7 3.5 0.00 0.00 0.00 54 1011.5
20260510151509 54 175 0.9 3.5 0.00 0.00 0.00 55 1011.5
20260510151010 54 325 1.7 3.5 0.00 0.00 0.00 56 1011.6
20260510150508 54 207 0.9 2.6 0.00 0.00 0.00 55 1011.6
20260510150007 54 225 0.0 2.6 0.00 0.00 0.00 55 1011.7
20260510145507 54 181 0.0 2.6 0.00 0.00 0.00 55 1011.7
20260510145011 55 71 0.9 3.5 0.00 0.00 0.00 56 1011.7
20260510144519 54 217 0.9 3.5 0.00 0.00 0.00 56 1011.8
20260510144007 55 102 0.9 4.3 0.00 0.00 0.00 56 1011.9
20260510143507 55 294 0.9 4.3 0.00 0.00 0.00 56 1011.9
20260510143005 54 90 0.0 4.3 0.00 0.00 0.00 57 1011.9
20260510142505 54 246 1.7 4.3 0.00 0.00 0.00 56 1011.9
20260510142004 55 339 0.9 4.3 0.00 0.00 0.00 56 1012.0
20260510141504 55 209 1.7 4.3 0.00 0.00 0.00 57 1012.1
20260510141004 55 286 0.9 10.4 0.00 0.00 0.00 58 1012.1
20260510140503 55 293 3.5 10.4 0.00 0.00 0.00 57 1012.1
20260510140004 55 217 2.6 9.6 0.00 0.00 0.00 57 1012.0
20260510135506 56 258 2.6 9.6 0.00 0.00 0.00 58 1012.0
20260510135002 56 145 1.7 7.0 0.00 0.00 0.00 58 1012.0
20260510134502 56 254 0.9 6.1 0.00 0.00 0.00 60 1012.1
20260510134001 56 242 1.7 5.2 0.00 0.00 0.00 62 1012.1
20260510133501 55 306 0.0 5.2 0.00 0.00 0.00 62 1012.2
20260510133117 55 360 0.9 5.2 0.00 0.00 0.00 62 1012.2
20260510132600 56 242 0.9 4.3 0.00 0.00 0.00 62 1012.3
20260510132101 56 328 0.9 4.3 0.00 0.00 0.00 62 1012.3
20260510131605 56 165 0.9 6.1 0.00 0.00 0.00 62 1012.4
20260510131059 56 248 1.7 7.0 0.00 0.00 0.00 62 1012.4
20260510130558 56 282 2.6 7.0 0.00 0.00 0.00 60 1012.4
20260510130058 56 186 2.6 7.0 0.00 0.00 0.00 59 1012.4
20260510125557 57 209 1.7 7.0 0.00 0.00 0.00 59 1012.4
20260510125057 57 284 1.7 7.0 0.00 0.00 0.00 60 1012.5
20260510124600 57 347 1.7 7.0 0.00 0.00 0.00 61 1012.5
20260510124056 56 224 1.7 7.0 0.00 0.00 0.00 63 1012.5
20260510123556 56 220 1.7 7.8 0.00 0.00 0.00 64 1012.7
20260510123104 56 246 1.7 7.8 0.00 0.00 0.00 64 1012.7
20260510122556 55 309 1.7 7.0 0.00 0.00 0.00 66 1012.8
20260510122054 55 299 1.7 5.2 0.00 0.00 0.00 68 1012.9
20260510121553 54 250 1.7 7.0 0.00 0.00 0.00 68 1013.0
20260510121054 54 316 2.6 7.0 0.00 0.00 0.00 69 1013.1
20260510120553 54 304 0.9 4.3 0.00 0.00 0.00 70 1013.0
20260510120054 54 338 1.7 4.3 0.00 0.00 0.00 72 1013.0
20260510115555 53 55 0.9 4.3 0.00 0.00 0.00 75 1013.1
20260510115052 53 63 2.6 4.3 0.00 0.00 0.00 77 1013.2
20260510114551 52 53 0.9 3.5 0.00 0.00 0.00 78 1013.3
20260510114050 52 53 0.9 2.6 0.00 0.00 0.00 77 1013.3
20260510113551 52 53 0.0 1.7 0.00 0.00 0.00 77 1013.4
20260510113051 52 53 0.0 2.6 0.00 0.00 0.00 77 1013.5
20260510112550 52 51 0.9 4.3 0.00 0.00 0.00 76 1013.5
20260510112050 52 53 1.7 4.3 0.00 0.00 0.00 75 1013.4
20260510111548 53 37 0.0 2.6 0.00 0.00 0.00 75 1013.5
20260510111048 53 37 0.9 3.5 0.00 0.00 0.00 74 1013.5
20260510110549 54 15 0.9 3.5 0.00 0.00 0.00 73 1013.6
20260510110047 54 38 0.9 3.5 0.00 0.00 0.00 72 1013.7
20260510105548 55 32 0.0 3.5 0.00 0.00 0.00 70 1013.6
20260510105047 56 74 0.0 2.6 0.00 0.00 0.00 69 1013.6
20260510104548 56 126 0.0 2.6 0.00 0.00 0.00 68 1013.7
20260510104051 57 30 0.0 4.3 0.00 0.00 0.00 67 1013.7
20260510103547 58 24 0.9 7.8 0.00 0.00 0.00 61 1013.8
20260510103047 58 157 2.6 7.8 0.00 0.00 0.00 57 1013.7
20260510102547 59 269 1.7 5.2 0.00 0.00 0.00 54 1013.6
20260510102046 59 158 1.7 6.1 0.00 0.00 0.00 55 1013.6
20260510101545 58 344 1.7 7.8 0.00 0.00 0.00 57 1013.6
20260510101044 58 216 2.6 7.8 0.00 0.00 0.00 57 1013.8
20260510100546 58 227 0.9 4.3 0.00 0.00 0.00 57 1013.9
20260510100042 58 309 1.7 7.0 0.00 0.00 0.00 55 1014.0
20260510095542 58 298 2.6 7.0 0.00 0.00 0.00 56 1014.0
20260510095042 58 50 0.9 3.5 0.00 0.00 0.00 57 1014.0
20260510094543 58 34 1.7 3.5 0.00 0.00 0.00 56 1014.0
20260510094041 58 126 0.9 4.3 0.00 0.00 0.00 56 1014.0
20260510093540 58 246 0.9 4.3 0.00 0.00 0.00 57 1014.1
20260510093040 58 68 0.9 6.1 0.00 0.00 0.00 56 1014.1
20260510092540 57 252 2.6 6.1 0.00 0.00 0.00 56 1014.2
20260510092040 57 69 1.7 6.1 0.00 0.00 0.00 55 1014.2
20260510091539 57 153 0.9 5.2 0.00 0.00 0.00 57 1014.2
20260510091038 58 246 0.9 5.2 0.00 0.00 0.00 56 1014.3
20260510090538 58 175 0.9 4.3 0.00 0.00 0.00 56 1014.4
20260510090037 58 104 0.9 8.7 0.00 0.00 0.00 55 1014.4
20260510085540 58 261 0.9 8.7 0.00 0.00 0.00 54 1014.4
20260510085035 58 195 1.7 7.0 0.00 0.00 0.00 55 1014.3
20260510084534 57 96 1.7 7.0 0.00 0.00 0.00 57 1014.4
20260510084033 56 321 2.6 7.0 0.00 0.00 0.00 56 1014.6
20260510083532 55 255 0.9 5.2 0.00 0.00 0.00 57 1014.6
20260510083029 55 64 1.7 4.3 0.00 0.00 0.00 56 1014.7
20260510082528 55 213 0.9 4.3 0.00 0.00 0.00 58 1014.7
20260510082027 54 290 0.9 4.3 0.00 0.00 0.00 60 1014.7
20260510081532 54 113 0.9 4.3 0.00 0.00 0.00 65 1014.7
20260510081025 54 231 0.9 4.3 0.00 0.00 0.00 67 1014.8
20260510080524 53 117 0.9 2.6 0.00 0.00 0.00 68 1014.8
20260510080021 53 260 0.0 1.7 0.00 0.00 0.00 70 1014.7
20260510075520 52 95 0.9 1.7 0.00 0.00 0.00 71 1014.7
20260510075019 52 95 0.0 2.6 0.00 0.00 0.00 74 1014.7
20260510074521 51 96 0.9 2.6 0.00 0.00 0.00 76 1014.6
20260510074019 51 76 0.0 2.6 0.00 0.00 0.00 77 1014.6
20260510073515 51 64 0.9 2.6 0.00 0.00 0.00 79 1014.7
20260510073014 50 59 0.9 2.6 0.00 0.00 0.00 81 1014.7
20260510072513 50 274 0.0 2.6 0.00 0.00 0.00 82 1014.7
20260510072015 50 254 0.0 0.0 0.00 0.00 0.00 83 1014.7
20260510071511 49 254 0.0 0.0 0.00 0.00 0.00 85 1014.7
20260510071009 49 244 0.0 0.0 0.00 0.00 0.00 85 1014.8
20260510070506 48 244 0.0 0.0 0.00 0.00 0.00 85 1014.8
20260510070005 48 244 0.0 1.7 0.00 0.00 0.00 86 1014.9
20260510065503 48 244 0.0 1.7 0.00 0.00 0.00 86 1014.9
20260510065004 48 236 0.0 1.7 0.00 0.00 0.00 86 1014.9
20260510064502 47 279 0.0 2.6 0.00 0.00 0.00 87 1015.0
20260510064001 47 279 0.9 2.6 0.00 0.00 0.00 88 1015.0
20260510063600 47 68 0.0 2.6 0.00 0.00 0.00 89 1015.0
20260510063103 47 322 0.0 2.6 0.00 0.00 0.00 89 1014.9
20260510062602 46 347 0.0 2.6 0.00 0.00 0.00 91 1015.0
20260510062056 46 233 0.0 3.5 0.00 0.00 0.00 92 1014.9
20260510061556 45 267 0.9 3.5 0.00 0.00 0.00 92 1014.9
20260510061054 45 275 0.0 3.5 0.00 0.00 0.00 92 1014.9
20260510060553 44 284 1.7 3.5 0.00 0.00 0.00 92 1015.0
20260510060052 44 298 0.9 4.3 0.00 0.00 0.00 93 1015.0
20260510055552 44 205 1.7 4.3 0.00 0.00 0.00 93 1015.0
20260510055049 44 216 0.0 3.5 0.00 0.00 0.00 93 1015.1
20260510054548 43 284 0.9 4.3 0.00 0.00 0.00 93 1015.1
20260510054046 43 264 0.9 4.3 0.00 0.00 0.00 94 1015.1
20260510053546 43 279 0.0 2.6 0.00 0.00 0.00 94 1015.2
20260510053046 42 302 0.9 2.6 0.00 0.00 0.00 94 1015.2
20260510052545 42 67 0.0 0.9 0.00 0.00 0.00 93 1015.3
20260510052045 42 67 0.0 0.0 0.00 0.00 0.00 93 1015.3
20260510051545 41 67 0.0 0.0 0.00 0.00 0.00 94 1015.2
20260510051043 41 67 0.0 0.0 0.00 0.00 0.00 93 1015.3
20260510050541 41 67 0.0 0.0 0.00 0.00 0.00 93 1015.2
20260510050043 41 67 0.0 0.9 0.00 0.00 0.00 93 1015.3
20260510045541 40 67 0.0 0.9 0.00 0.00 0.00 93 1015.3
20260510045042 40 67 0.0 0.9 0.00 0.00 0.00 94 1015.4
20260510044547 40 67 0.0 0.0 0.00 0.00 0.00 94 1015.4
20260510044039 39 67 0.0 0.0 0.00 0.00 0.00 94 1015.4
20260510043538 39 67 0.0 0.0 0.00 0.00 0.00 93 1015.5
20260510043038 39 67 0.0 0.9 0.00 0.00 0.00 94 1015.5
20260510042537 38 67 0.0 0.0 0.00 0.00 0.00 93 1015.5
20260510042035 38 67 0.0 0.0 0.00 0.00 0.00 93 1015.7
20260510041535 38 67 0.0 0.0 0.00 0.00 0.00 93 1015.7
20260510041034 38 67 0.0 0.0 0.00 0.00 0.00 93 1015.8
20260510040533 37 67 0.0 0.9 0.00 0.00 0.00 93 1015.8
20260510040032 37 67 0.0 0.9 0.00 0.00 0.00 93 1015.9
20260510035530 37 67 0.0 0.0 0.00 0.00 0.00 93 1016.0
20260510035030 37 67 0.0 0.0 0.00 0.00 0.00 93 1016.1
20260510034535 37 67 0.0 0.0 0.00 0.00 0.00 93 1016.1
20260510034032 36 67 0.0 1.7 0.00 0.00 0.00 93 1016.0
20260510033529 36 67 0.0 1.7 0.00 0.00 0.00 93 1016.1
20260510033031 36 67 0.0 1.7 0.00 0.00 0.00 93 1016.1
20260510032532 36 67 0.0 0.0 0.00 0.00 0.00 93 1016.1
20260510032030 35 67 0.0 0.0 0.00 0.00 0.00 93 1016.2
20260510031532 35 67 0.0 0.0 0.00 0.00 0.00 92 1016.2
20260510031026 35 67 0.0 0.0 0.00 0.00 0.00 92 1016.3
20260510030525 34 67 0.0 0.0 0.00 0.00 0.00 92 1016.4
20260510030025 34 67 0.0 0.0 0.00 0.00 0.00 92 1016.4
20260510025525 34 67 0.0 0.0 0.00 0.00 0.00 91 1016.4
20260510025024 34 67 0.0 0.0 0.00 0.00 0.00 91 1016.5
20260510024523 34 67 0.0 0.0 0.00 0.00 0.00 92 1016.5
20260510024023 34 67 0.0 0.0 0.00 0.00 0.00 91 1016.5
20260510023522 34 67 0.0 0.0 0.00 0.00 0.00 91 1016.6
20260510023022 34 67 0.0 0.0 0.00 0.00 0.00 91 1016.7
20260510022521 34 67 0.0 0.0 0.00 0.00 0.00 91 1016.8
20260510022021 34 67 0.0 0.0 0.00 0.00 0.00 91 1016.8
20260510021532 34 67 0.0 0.0 0.00 0.00 0.00 91 1016.8
20260510021020 34 67 0.0 0.0 0.00 0.00 0.00 91 1016.9
20260510020518 34 67 0.0 0.0 0.00 0.00 0.00 91 1017.0
20260510020018 34 67 0.0 0.0 0.00 0.00 0.00 91 1017.0
20260510015517 35 67 0.0 0.0 0.00 0.00 0.00 91 1017.1
20260510015021 35 67 0.0 0.0 0.00 0.00 0.00 91 1017.1
20260510014517 35 67 0.0 0.0 0.00 0.00 0.00 91 1017.1
20260510014015 35 67 0.0 0.0 0.00 0.00 0.00 90 1017.1
20260510013515 35 67 0.0 0.0 0.00 0.00 0.00 90 1017.2
20260510013013 35 67 0.0 0.0 0.00 0.00 0.00 91 1017.2
20260510012514 36 67 0.0 0.0 0.00 0.00 0.00 91 1017.2
20260510012012 36 67 0.0 0.0 0.00 0.00 0.00 91 1017.2
20260510011512 36 67 0.0 0.0 0.00 0.00 0.00 91 1017.3
20260510011011 36 67 0.0 0.0 0.00 0.00 0.00 90 1017.3
20260510010509 36 67 0.0 0.0 0.00 0.00 0.00 90 1017.4
20260510010009 36 67 0.0 0.0 0.00 0.00 0.00 90 1017.4
20260510005508 36 67 0.0 0.0 0.00 0.00 0.00 90 1017.4
20260510005007 36 67 0.0 0.0 0.00 0.00 0.00 91 1017.5
20260510004506 37 67 0.0 0.0 0.00 0.00 0.00 90 1017.5
20260510004009 37 67 0.0 0.0 0.00 0.00 0.00 90 1017.6
20260510003505 37 67 0.0 0.0 0.00 0.00 0.00 90 1017.7
20260510003005 37 67 0.0 0.0 0.00 0.00 0.00 90 1017.8
20260510002503 37 67 0.0 0.0 0.00 0.00 0.00 90 1017.9
20260510002003 37 67 0.0 0.9 0.00 0.00 0.00 90 1017.9
20260510001503 37 67 0.0 0.9 0.00 0.00 0.00 89 1018.0
20260510001002 37 67 0.0 1.7 0.00 0.00 0.00 89 1018.0
20260510000501 37 67 0.9 1.7 0.00 0.00 0.00 89 1018.1
20260510000100 37 67 0.0 0.0 0.00 0.00 0.00 88 1018.2
20260509235558 38 67 0.0 0.0 0.00 0.00 0.00 88 1018.2
20260509235059 38 67 0.0 0.0 0.00 0.00 0.00 88 1018.2
20260509234600 38 67 0.0 0.0 0.00 0.00 0.00 87 1018.3
20260509234055 39 67 0.0 0.0 0.00 0.00 0.00 87 1018.5
20260509233558 39 67 0.0 0.0 0.00 0.00 0.00 87 1018.5
20260509233055 39 67 0.0 0.0 0.00 0.00 0.00 87 1018.5
20260509232552 39 67 0.0 0.0 0.00 0.00 0.00 87 1018.6
20260509232051 40 67 0.0 0.0 0.00 0.00 0.00 86 1018.6
20260509231551 40 67 0.0 0.0 0.00 0.00 0.00 86 1018.6
20260509231049 41 67 0.0 0.0 0.00 0.00 0.00 86 1018.6
20260509230550 41 67 0.0 0.0 0.00 0.00 0.00 87 1018.7
20260509230046 42 67 0.0 0.0 0.00 0.00 0.00 87 1018.8
20260509225544 42 67 0.0 0.0 0.00 0.00 0.00 88 1018.8
20260509225047 42 67 0.0 0.0 0.00 0.00 0.00 88 1019.0
20260509224554 42 67 0.0 0.0 0.00 0.00 0.00 88 1019.0
20260509224043 42 67 0.0 0.0 0.00 0.00 0.00 87 1019.1
20260509223544 43 67 0.0 0.0 0.00 0.00 0.00 86 1019.2
20260509223042 43 67 0.0 0.0 0.00 0.00 0.00 87 1019.1
20260509222541 44 67 0.0 0.0 0.00 0.00 0.00 88 1019.2
20260509222040 44 67 0.0 0.0 0.00 0.00 0.00 88 1019.2
20260509221556 43 67 0.0 0.0 0.00 0.00 0.00 88 1019.3
20260509221039 43 67 0.0 0.0 0.00 0.00 0.00 87 1019.3
20260509220537 43 67 0.0 0.0 0.00 0.00 0.00 87 1019.3